CW4859 Weather Reports


time (UTC)temp
F
wind
direction
speed
knots
gust
knots
rain 1hr
in
rain 24hr
in
rain mn
in
humidity
%
barometer
mb
20260504214953 73 181 5.2 13.9 0.00 0.00 0.00 33 1007.2
20260504214453 73 190 2.6 7.0 0.00 0.00 0.00 33 1007.2
20260504213953 73 183 2.6 11.3 0.00 0.00 0.00 33 1007.2
20260504213453 73 159 5.2 11.3 0.00 0.00 0.00 34 1007.2
20260504212953 73 200 7.0 9.6 0.00 0.00 0.00 33 1007.2
20260504212453 73 185 3.5 11.3 0.00 0.00 0.00 32 1007.2
20260504211953 74 191 6.1 12.2 0.00 0.00 0.00 32 1007.2
20260504211453 73 173 3.5 13.9 0.00 0.00 0.00 32 1007.3
20260504210953 74 204 6.1 7.8 0.00 0.00 0.00 33 1007.3
20260504210453 74 142 2.6 12.2 0.00 0.00 0.00 33 1007.3
20260504205956 74 171 7.0 12.2 0.00 0.00 0.00 31 1007.2
20260504205453 74 169 3.5 10.4 0.00 0.00 0.00 31 1007.2
20260504204956 74 141 4.3 14.8 0.00 0.00 0.00 31 1007.2
20260504204453 74 148 9.6 12.2 0.00 0.00 0.00 33 1007.3
20260504203953 74 165 4.3 10.4 0.00 0.00 0.00 32 1007.3
20260504203453 74 188 6.1 14.8 0.00 0.00 0.00 31 1007.3
20260504202953 74 194 7.8 11.3 0.00 0.00 0.00 32 1007.3
20260504202456 74 165 4.3 11.3 0.00 0.00 0.00 31 1007.3
20260504201953 74 215 5.2 12.2 0.00 0.00 0.00 31 1007.3
20260504201453 73 141 5.2 10.4 0.00 0.00 0.00 32 1007.3
20260504200953 73 159 5.2 15.6 0.00 0.00 0.00 31 1007.3
20260504200453 73 163 2.6 10.4 0.00 0.00 0.00 32 1007.3
20260504195953 73 180 6.1 11.3 0.00 0.00 0.00 32 1007.7
20260504195453 73 135 2.6 10.4 0.00 0.00 0.00 30 1007.7
20260504194953 73 181 7.0 10.4 0.00 0.00 0.00 32 1007.7
20260504194453 73 180 6.1 14.8 0.00 0.00 0.00 31 1007.7
20260504193953 73 178 2.6 11.3 0.00 0.00 0.00 33 1007.7
20260504193456 73 194 3.5 8.7 0.00 0.00 0.00 33 1007.7
20260504192953 73 174 3.5 13.0 0.00 0.00 0.00 32 1008.1
20260504192453 73 170 4.3 11.3 0.00 0.00 0.00 30 1008.1
20260504191953 74 190 4.3 13.0 0.00 0.00 0.00 30 1008.1
20260504191453 74 208 2.6 12.2 0.00 0.00 0.00 31 1008.1
20260504190953 74 220 2.6 11.3 0.00 0.00 0.00 32 1008.1
20260504190453 74 144 4.3 13.0 0.00 0.00 0.00 31 1008.1
20260504185953 74 188 6.1 7.8 0.00 0.00 0.00 32 1008.3
20260504185453 74 177 3.5 13.9 0.00 0.00 0.00 31 1008.3
20260504184953 74 195 5.2 6.1 0.00 0.00 0.00 33 1008.3
20260504184453 73 123 4.3 12.2 0.00 0.00 0.00 32 1008.7
20260504183953 73 192 6.1 11.3 0.00 0.00 0.00 32 1008.7
20260504183453 73 338 1.7 13.0 0.00 0.00 0.00 31 1008.7
20260504182956 73 155 2.6 9.6 0.00 0.00 0.00 33 1008.7
20260504182453 73 163 1.7 10.4 0.00 0.00 0.00 33 1008.7
20260504181953 73 157 3.5 8.7 0.00 0.00 0.00 33 1008.7
20260504181456 73 188 4.3 11.3 0.00 0.00 0.00 33 1008.8
20260504180953 73 154 7.0 12.2 0.00 0.00 0.00 34 1008.8
20260504180453 73 191 6.1 13.0 0.00 0.00 0.00 33 1008.8
20260504175953 73 153 10.4 12.2 0.00 0.00 0.00 35 1009.2
20260504175456 73 193 6.1 12.2 0.00 0.00 0.00 33 1009.2
20260504174953 73 214 7.0 10.4 0.00 0.00 0.00 34 1009.2
20260504174453 73 206 5.2 8.7 0.00 0.00 0.00 35 1009.2
20260504173953 73 187 7.8 12.2 0.00 0.00 0.00 34 1009.2
20260504173453 73 163 7.0 10.4 0.00 0.00 0.00 34 1009.2
20260504172953 73 205 5.2 9.6 0.00 0.00 0.00 33 1009.3
20260504172453 73 206 4.3 8.7 0.00 0.00 0.00 35 1009.3
20260504171953 74 188 6.1 9.6 0.00 0.00 0.00 32 1009.3
20260504171453 74 172 7.8 7.8 0.00 0.00 0.00 34 1009.6
20260504170953 74 190 6.1 11.3 0.00 0.00 0.00 35 1009.6
20260504170453 74 227 3.5 12.2 0.00 0.00 0.00 33 1009.6
20260504150953 68 195 0.9 7.8 0.00 0.00 0.00 46 1011.1
20260504150452 67 181 4.3 7.8 0.00 0.00 0.00 46 1011.1
20260504140953 64 182 5.2 8.7 0.00 0.00 0.00 53 1011.3
20260504140452 63 193 6.1 9.6 0.00 0.00 0.00 51 1011.3
20260504130452 60 194 6.1 8.7 0.00 0.00 0.00 59 1011.5
20260504110452 50 165 1.7 7.0 0.00 0.00 0.00 75 1012.4
20260504100452 46 190 2.6 6.1 0.00 0.00 0.00 76 1012.4
20260504081952 44 172 0.0 0.0 0.00 0.00 0.00 76 1012.0
20260504081455 44 172 0.0 0.0 0.00 0.00 0.00 75 1012.1
20260504080952 44 172 0.0 0.0 0.00 0.00 0.00 74 1012.1
20260504080452 44 172 0.0 0.0 0.00 0.00 0.00 74 1012.1
20260504050451 52 184 0.9 2.6 0.00 0.00 0.00 52 1011.8
20260504045951 52 180 1.7 2.6 0.00 0.00 0.00 51 1011.6
20260504045451 52 168 0.0 2.6 0.00 0.00 0.00 51 1011.6
20260504044951 52 167 2.6 2.6 0.00 0.00 0.00 51 1011.6
20260504044451 53 148 0.9 2.6 0.00 0.00 0.00 51 1011.4
20260504043951 53 178 0.0 2.6 0.00 0.00 0.00 50 1011.4
20260504043451 53 169 0.9 3.5 0.00 0.00 0.00 50 1011.4
20260504042951 53 169 1.7 2.6 0.00 0.00 0.00 50 1011.3
20260504042454 53 178 0.0 2.6 0.00 0.00 0.00 49 1011.3
20260504041951 53 182 1.7 3.5 0.00 0.00 0.00 48 1011.3
20260504041454 53 167 1.7 2.6 0.00 0.00 0.00 47 1011.3
20260504040951 54 184 0.0 2.6 0.00 0.00 0.00 47 1011.3
20260504040451 54 156 1.7 4.3 0.00 0.00 0.00 46 1011.3
20260504035951 54 204 1.7 4.3 0.00 0.00 0.00 46 1011.1
20260504035451 54 169 1.7 3.5 0.00 0.00 0.00 46 1011.1
20260504034951 54 198 3.5 4.3 0.00 0.00 0.00 45 1011.1
20260504034451 54 185 0.9 5.2 0.00 0.00 0.00 45 1011.1
20260504033951 54 200 1.7 3.5 0.00 0.00 0.00 45 1011.1
20260504033451 54 186 2.6 5.2 0.00 0.00 0.00 44 1011.1
20260504032951 54 205 2.6 4.3 0.00 0.00 0.00 44 1011.0
20260504032451 54 205 3.5 4.3 0.00 0.00 0.00 44 1011.0
20260504031951 54 188 1.7 7.0 0.00 0.00 0.00 44 1011.0
20260504031451 54 188 5.2 6.1 0.00 0.00 0.00 44 1011.0
20260504030951 54 187 1.7 3.5 0.00 0.00 0.00 44 1011.0
20260504030454 54 190 2.6 3.5 0.00 0.00 0.00 44 1011.0
20260504025951 54 177 1.7 4.3 0.00 0.00 0.00 44 1011.0
20260504025451 54 187 1.7 7.0 0.00 0.00 0.00 44 1011.0
20260504024951 54 190 1.7 5.2 0.00 0.00 0.00 44 1011.0
20260504024454 55 205 2.6 3.5 0.00 0.00 0.00 44 1011.0
20260504023951 55 183 1.7 3.5 0.00 0.00 0.00 44 1011.0
20260504023451 55 192 0.9 4.3 0.00 0.00 0.00 44 1011.0
20260504022951 55 186 1.7 3.5 0.00 0.00 0.00 44 1010.9
20260504022454 54 192 1.7 3.5 0.00 0.00 0.00 43 1010.9
20260504021951 55 207 1.7 4.3 0.00 0.00 0.00 43 1010.9
20260504021454 55 186 0.9 3.5 0.00 0.00 0.00 44 1010.9
20260504020951 55 193 0.0 3.5 0.00 0.00 0.00 43 1010.9
20260504020451 55 188 1.7 5.2 0.00 0.00 0.00 43 1010.9
20260504015951 55 182 0.9 5.2 0.00 0.00 0.00 43 1010.8
20260504015451 55 174 0.9 2.6 0.00 0.00 0.00 43 1010.8
20260504014954 56 164 0.0 1.7 0.00 0.00 0.00 43 1010.8
20260504014451 56 170 1.7 3.5 0.00 0.00 0.00 42 1010.6
20260504013954 56 173 1.7 1.7 0.00 0.00 0.00 42 1010.6
20260504013451 56 179 0.9 3.5 0.00 0.00 0.00 41 1010.6
20260504012951 56 208 0.0 0.0 0.00 0.00 0.00 41 1010.4
20260504012451 57 173 0.0 0.0 0.00 0.00 0.00 41 1010.4
20260504011951 57 190 0.0 0.9 0.00 0.00 0.00 40 1010.4
20260504011454 57 190 0.0 1.7 0.00 0.00 0.00 40 1010.3
20260504010951 57 190 0.9 2.6 0.00 0.00 0.00 39 1010.3
20260504010451 57 180 0.9 2.6 0.00 0.00 0.00 38 1010.3
20260504005951 57 197 0.9 2.6 0.00 0.00 0.00 38 1010.1
20260504005451 57 202 1.7 1.7 0.00 0.00 0.00 37 1010.1
20260504004951 58 194 0.9 3.5 0.00 0.00 0.00 37 1010.1
20260504004451 58 174 1.7 2.6 0.00 0.00 0.00 37 1009.9
20260504003951 58 240 0.9 3.5 0.00 0.00 0.00 36 1009.9
20260504003451 58 196 1.7 4.3 0.00 0.00 0.00 36 1009.9
20260504002951 58 205 1.7 5.2 0.00 0.00 0.00 36 1009.8
20260504002451 58 183 1.7 5.2 0.00 0.00 0.00 35 1009.8
20260504001951 59 198 1.7 2.6 0.00 0.00 0.00 36 1009.8
20260504001451 59 207 1.7 4.3 0.00 0.00 0.00 35 1009.6
20260504000951 59 209 2.6 3.5 0.00 0.00 0.00 34 1009.6
20260504000451 59 216 0.0 2.6 0.00 0.00 0.00 34 1009.6
20260503235951 59 233 0.9 5.2 0.00 0.00 0.00 34 1009.4
20260503235451 59 247 1.7 4.3 0.00 0.00 0.00 33 1009.4
20260503234951 60 229 1.7 6.1 0.00 0.00 0.00 34 1009.4
20260503234451 60 159 0.9 5.2 0.00 0.00 0.00 33 1009.3
20260503233951 60 225 2.6 6.1 0.00 0.00 0.00 33 1009.3
20260503233454 60 284 4.3 9.6 0.00 0.00 0.00 34 1009.3
20260503232951 60 296 1.7 7.0 0.00 0.00 0.00 32 1009.3
20260503232451 60 286 5.2 7.0 0.00 0.00 0.00 32 1009.3
20260503231951 60 209 2.6 6.1 0.00 0.00 0.00 32 1009.3
20260503231451 60 257 3.5 9.6 0.00 0.00 0.00 31 1009.0
20260503230954 61 242 0.9 5.2 0.00 0.00 0.00 32 1009.0
20260503230454 61 265 3.5 5.2 0.00 0.00 0.00 31 1009.0
20260503225951 61 217 0.9 7.0 0.00 0.00 0.00 31 1009.2
20260503225451 61 287 2.6 6.1 0.00 0.00 0.00 31 1009.2
20260503224951 61 259 1.7 8.7 0.00 0.00 0.00 31 1009.2
20260503224451 61 273 7.0 9.6 0.00 0.00 0.00 30 1009.0
20260503223951 61 269 11.3 14.8 0.00 0.00 0.00 31 1009.0
20260503223454 61 311 1.7 8.7 0.00 0.00 0.00 31 1009.0
20260503222951 61 204 2.6 11.3 0.00 0.00 0.00 30 1008.9
20260503222451 61 225 3.5 9.6 0.00 0.00 0.00 31 1008.9
20260503221951 61 209 2.6 10.4 0.00 0.00 0.00 32 1008.9
20260503221451 61 269 4.3 11.3 0.00 0.00 0.00 30 1008.9
20260503220951 61 290 5.2 11.3 0.00 0.00 0.00 30 1008.9
20260503220453 61 263 9.6 13.0 0.00 0.00 0.00 30 1008.9
20260503215951 61 281 7.0 10.4 0.00 0.00 0.00 31 1009.3
20260503215451 61 262 6.1 10.4 0.00 0.00 0.00 30 1009.3